Other Public Products
Issued by NWS Grand Forks, ND

Home | Current Version | Previous Version | Graphics & Text | Print | Product List | Glossary On
Versions: 1 2 3 4 5 6 7 8 9 10 11 12 13 14 15 16 17 18 19 20 21 22 23 24 25 26 27 28 29 30 31 32 33 34 35 36 37 38 39 40 41 42 43 44 45 46 47 48 49 50
000
FPUS83 KFGF 280031
OPUFGF
PRAIRIE TO PINES WEATHER ROUNDUP
NATIONAL WEATHER SERVICE EASTERN NORTH DAKOTA/GRAND FORKS ND
700 PM CDT TUE SEP 27 2016

 **SATELLITE DATA USED TO AUGMENT SKY COVER AT AUTOMATED STATIONS**
 *****  WEATHER ACROSS EASTERN NORTH DAKOTA  *****

CITY           SKY/WX    TMP DP  RH WIND       PRES   REMARKS
GRAND FORKS    PTCLDY    56  44  64 N14G21    29.94R
6HR MIN TEMP:  56; 6HR MAX TEMP:  60;

GRAND FORKS AF CLEAR     54  44  68 NE9       29.95R
GRAND CITY NWS   N/A     54 N/A N/A N6          N/A
BUXTON           N/A     60  53  79 N9          N/A
DEVILS LAKE    CLEAR     59  36  42 N9        29.96R
6HR MIN TEMP:  59; 6HR MAX TEMP:  65;

FARGO          CLEAR     56  43  61 N13       29.92R
6HR MIN TEMP:  56; 6HR MAX TEMP:  65;

WAHPETON ARPT  CLEAR     54  41  62 N15       29.92R
$$

 *****  WEATHER ACROSS CENTRAL AND WESTERN NORTH DAKOTA  *****

CITY           SKY/WX    TMP DP  RH WIND       PRES   REMARKS
JAMESTOWN      CLEAR     60  35  39 N5        29.93R
6HR MIN TEMP:  60; 6HR MAX TEMP:  67;

BISMARCK       CLEAR     70  42  36 N7        29.95R
6HR MIN TEMP:  67; 6HR MAX TEMP:  74;

MINOT          CLEAR     65  43  44 NE6       29.94S
6HR MIN TEMP:  65; 6HR MAX TEMP:  73;

MINOT AFB      CLEAR     65  43  44 E6        29.94R
6HR MIN TEMP:  64; 6HR MAX TEMP:  70;

GARRISON         N/A     67  46  47 CALM      29.95R
6HR MIN TEMP:  66; 6HR MAX TEMP:  72;

WILLISTON      CLEAR     78  53  41 CALM      29.91S
6HR MIN TEMP:  67; 6HR MAX TEMP:  80;

DICKINSON      CLEAR     73  45  36 N5        29.94R
6HR MIN TEMP:  70; 6HR MAX TEMP:  77;

HETTINGER      CLEAR     75  50  41 NW8       29.97R
6HR MIN TEMP:  74; 6HR MAX TEMP:  81;

$$

 *****  OTHER OBSERVATIONS NORTHEAST NORTH DAKOTA  *****

CITY           SKY/WX    TMP DP  RH WIND       PRES   REMARKS
WALHALLA       FAIR      54  50  87 N9        29.97S
LANGDON        FAIR      52  45  76 NE10      29.97R
CAVALIER       CLOUDY    55  46  71 N8        29.97R
GRAFTON        CLOUDY    55  46  71 N10       29.97R
CANDO          FAIR      55  37  50 NE7       29.98R
FORT TOTTEN    NOT AVBL
ROLLA          FAIR      54  37  54 N6        29.98R
RUGBY          FAIR      57  36  44 NE7       29.96R
 ***** THE ABOVE OBSERVATIONS ARE NON NWS ARE NOT QUALITY
        CONTROLLED AND MAY MIS-REPORT RAIN FOR SNOW...
$$

 *****  OTHER OBSERVATIONS SOUTHEAST NORTH DAKOTA *****

CITY           SKY/WX    TMP DP  RH WIND       PRES   REMARKS
COOPERSTOWN    FAIR      55  39  54 N9        29.95R
VALLEY CITY    FAIR      57  34  41 N9        29.95R
OAKES          NOT AVBL
GWINNER        FAIR      59  32  36 N7        29.92R
SHEYENNE NWR     N/A     62  35  37 N7        29.95
BUFFALO          N/A     54  38  53 NE7         N/A
WYNDMERE         N/A     57  43  58 NE9         N/A
 ***** THE ABOVE OBSERVATIONS ARE NON NWS ARE NOT QUALITY
       CONTROLLED AND MAY MIS-REPORT RAIN FOR SNOW...
$$

  *****  WEATHER ACROSS NORTHERN MINNESOTA  *****

CITY           SKY/WX    TMP DP  RH WIND       PRES   REMARKS
FLAG ISLAND    MOCLDY    52  43  71 N15       29.93R
WARROAD        CLOUDY    50  45  81 N7        29.94R
ROSEAU         CLOUDY    50  43  76 N7        29.95R
HALLOCK        CLOUDY    54  46  76 N8        29.96R
THF RVR FALLS    N/A     50  43  77 N14       29.95R
6HR MIN TEMP:  50; 6HR MAX TEMP:  52;

HALSTAD          N/A     55  45  69 N14         N/A
FOSSTON        MOCLDY    45  43  93 N7        29.94R
BAUDETTE       CLOUDY    50  44  80 N9        29.91R
6HR MIN TEMP:  47; 6HR MAX TEMP:  53; 6HR PCP:  0.02;

WASKISH        CLOUDY    48  46  93 N7        29.92R
CROOKSTON      CLOUDY    54  45  71 N9        29.95R
$$
  *****  WEATHER ACROSS CENTRAL AND WEST MINNESOTA  *****

CITY           SKY/WX    TMP DP  RH WIND       PRES   REMARKS
BEMIDJI        MOCLDY    45  43  93 NW7       29.91R
PARK RAPIDS    PTCLDY    48  42  80 N15       29.90R
6HR MIN TEMP:  49; 6HR MAX TEMP:  51; 6HR PCP:  0.01;

WADENA         CLOUDY    48  43  81 N12       29.89R
DETROIT LAKES  CLOUDY    50  45  81 N7        29.93R
MOORHEAD       CLEAR     54  43  66 N15       29.93R
FERGUS FALLS   CLOUDY    54  43  66 N12       29.93R
ELBOW LAKE     CLOUDY    54  43  66 N12G20    29.90R
MORRIS MN      CLOUDY    57  41  54 N15G23    29.88R
STAPLES        CLOUDY    46  45  93 N8        29.89R
WHEATON        CLEAR     61  43  51 N12G18    29.90R
$$
  *****  WEATHER ELSEWHERE ACROSS MINNESOTA  *****

CITY           SKY/WX    TMP DP  RH WIND       PRES   REMARKS
DULUTH         CLOUDY    48  45  89 N14G24    29.78R
6HR MIN TEMP:  47; 6HR MAX TEMP:  50; 6HR PCP:  0.11;

INTRNTL FALLS  CLOUDY    50  45  83 N12       29.87R
6HR MIN TEMP:  47; 6HR MAX TEMP:  53; 6HR PCP:  0.01;

ELY            CLOUDY    46  46 100 CALM      29.82R
CLOQUET        CLOUDY    46  45  93 NW13      29.80R
BRAINERD       CLOUDY    48  46  93 N9        29.87R
6HR MIN TEMP:  48; 6HR MAX TEMP:  50; 6HR PCP:  0.05;

HIBBING        CLOUDY    47  45  93 NW9       29.83R
6HR MIN TEMP:  44; 6HR MAX TEMP:  48; 6HR PCP:  0.04;

ALEXANDRIA     CLOUDY    53  43  68 N14G22    29.90R
6HR MIN TEMP:  53; 6HR MAX TEMP:  60;

SAINT CLOUD    CLOUDY    49  47  93 NW10      29.86R
6HR MIN TEMP:  49; 6HR MAX TEMP:  56; 6HR PCP:  0.01;

MINNEAPOLIS    LGT RAIN  50  46  86 NW12      29.84S
6HR MIN TEMP:  50; 6HR MAX TEMP:  60; 6HR PCP:  0.04;

$$

  *****  WEATHER ACROSS SOUTH DAKOTA  *****

CITY           SKY/WX    TMP DP  RH WIND       PRES   REMARKS
SIOUX FALLS    PTCLDY    67  45  45 N9        29.86R
6HR MIN TEMP:  67; 6HR MAX TEMP:  75;

BROOKINGS      CLEAR     62  39  42 NW9       29.87R
WATERTOWN      CLEAR     60  33  36 N9        29.89R
6HR MIN TEMP:  60; 6HR MAX TEMP:  70;

HURON          CLEAR     69  42  37 N10       29.88R
6HR MIN TEMP:  69; 6HR MAX TEMP:  77;

SISSETON         N/A     62  29  28 N9        29.88R
ABERDEEN       CLEAR     67  35  30 N9        29.91R
6HR MIN TEMP:  67; 6HR MAX TEMP:  74;

MITCHELL       CLEAR     72  43  35 N7        29.88R
PIERRE         CLEAR     74  44  34 NE10      29.90R
6HR MIN TEMP:  73; 6HR MAX TEMP:  81;

MOBRIDGE       CLEAR     72  42  34 NE9       29.91R
RAPID CITY     CLEAR     78  42  27 N14       29.99R
6HR MIN TEMP:  78; 6HR MAX TEMP:  84;

$$

  *****  SOME WEATHER IN NEARBY STATES *****

CITY           SKY/WX    TMP DP  RH WIND       PRES   REMARKS
GLASGOW MT     CLEAR     83  45  26 W8        29.90S
6HR MIN TEMP:  69; 6HR MAX TEMP:  86; 6HR PCP: TRACE;

GREAT FALLS MT SUNNY     80  43  26 S8        30.02R
6HR MIN TEMP:  78; 6HR MAX TEMP:  84;

CHEYENNE WY    CLEAR     76  23  14 N9        30.18R
6HR MIN TEMP:  76; 6HR MAX TEMP:  80;

SCOTTSBLUFF NE CLEAR     81  37  20 SW5       30.04R
6HR MIN TEMP:  73; 6HR MAX TEMP:  84;

OMAHA NE       PTCLDY    73  48  41 NW5       29.85F
6HR MIN TEMP:  72; 6HR MAX TEMP:  80;

DES MOINES IA  PTCLDY    69  45  41 W7        29.81R
6HR MIN TEMP:  69; 6HR MAX TEMP:  76;

DAVENPORT IA   PTCLDY    65  34  31 W8        29.78S
6HR MIN TEMP:  65; 6HR MAX TEMP:  74;

CHICAGO IL     CLOUDY    64  33  31 W12       29.76R
6HR MIN TEMP:  64; 6HR MAX TEMP:  70;

EAU CLAIRE WI  LGT RAIN  48  46  93 NW7       29.79R
6HR MIN TEMP:  48; 6HR MAX TEMP:  54; 6HR PCP:  0.21;

LA CROSSE WI   LGT RAIN  53  48  83 N9        29.80R
6HR MIN TEMP:  53; 6HR MAX TEMP:  68; 6HR PCP:  0.01;

$$

  *****  SOME NATIONAL WEATHER *****

CITY           SKY/WX    TMP DP  RH WIND       PRES   REMARKS
LA GUARDIA NY  PTCLDY    70  62  76 S7        29.92R
6HR MIN TEMP:  70; 6HR MAX TEMP:  76;                              C1F1C2F2C3F3C4F4C5F5C6F6C7F7C8F8C9F9CaFaCbFbCcFcCdFdCe!



USA.gov is the U.S. government's official web portal to all federal, state and local government web resources and services.